Regional Weather Roundup
Issued by NWS Upton, NY

Current Version | Previous Version | Graphics & Text | Print | Product List | Glossary Off
Versions: 1 2 3 4 5 6 7 8 9 10 11 12 13 14 15 16 17 18 19 20 21 22 23 24 25 26 27 28 29 30 31 32 33 34 35 36 37 38 39 40 41 42 43 44 45 46 47 48 49 50

000
ASUS41 KOKX 261209
RWROKX

REGIONAL WEATHER ROUNDUP
NATIONAL WEATHER SERVICE NEW YORK NY
800 AM EDT FRI MAY 26 2017

NOTE: "FAIR" INDICATES FEW OR NO CLOUDS BELOW 12,000 FEET WITH NO
SIGNIFICANT WEATHER AND/OR OBSTRUCTIONS TO VISIBILITY.

NYZ071-072-176-178-NJZ106-104-261300-
NEW YORK CITY METRO AREA

CITY           SKY/WX    TMP DP  RH WIND       PRES   REMARKS
Central Park   CLOUDY    57  56  96 W3        29.60R
Wall St Helipt CLOUDY    57  55  94 W8        29.59R
Bronx Bot Gard   N/A     55  54  94 W5        29.60R
LaGuardia APRT CLOUDY    58  55  90 W7        29.57R
Kennedy INTL   PTSUNNY   59  58  96 NW5       29.58R
Breezy Point     N/A     57 N/A N/A NW5         N/A
Newark/Liberty CLOUDY    56  56 100 NW7       29.58R
Teterboro      CLOUDY    58  55  90 NW7       29.57R
$$

NYZ177-179-078>081-261300-
LONG ISLAND NEW YORK

CITY           SKY/WX    TMP DP  RH WIND       PRES   REMARKS
Jones Beach      N/A     55 N/A N/A NW7         N/A
Matinecock PT    N/A     86 N/A N/A CALM        N/A
Farmingdale    CLOUDY    56  54  93 NW6       29.56R
MacArthur/ISP  CLOUDY    54  53  97 NW10G18   29.55R
Shirley        CLOUDY    53  53 100 NW9       29.55R
Mt Sinai Harb    N/A     52 N/A N/A NW6         N/A
Westhampton    CLOUDY    52  50  93 NW9       29.55R
East Hampton   DRIZZLE   51  50  96 NW7       29.51R
Montauk          N/A     52  51  97 NW10      29.51R
$$

NYZ052-065-067-261300-
HUDSON VALLEY

CITY           SKY/WX    TMP DP  RH WIND       PRES   REMARKS
White Plains   LGT RAIN  55  53  93 NW5       29.56R FOG
Larchmont Harb   N/A     55 N/A N/A W5          N/A
Croton O-T Hud   N/A     55 N/A N/A N1          N/A
Newburgh       CLOUDY    54  54 100 W7        29.58R
Montgomery     CLOUDY    55  53  93 CALM      29.57R FOG
Poughkeepsie   LGT RAIN  54  52  93 CALM      29.56R FOG
Albany         LGT RAIN  54  51  90 NW7       29.56S
$$

NJZ001-105-106-008-010-013-015-019>022-104-261300-
NEW JERSEY

CITY           SKY/WX    TMP DP  RH WIND       PRES   REMARKS
Newark/Liberty CLOUDY    56  56 100 NW7       29.58R
Teterboro      CLOUDY    58  55  90 NW7       29.57R
Caldwell       CLOUDY    58  55  90 W3        29.59R
Somerville     CLOUDY    59  57  93 CALM      29.58R
Linden         CLOUDY    59  56  91 CALM      29.59R
Perth Amboy      N/A     57 N/A N/A W8          N/A
Sussex         CLOUDY    57  56  96 SW5       29.59R
Andover          N/A     56  55  97 CALM      29.59R
Trenton        CLOUDY    61  58  90 W7        29.60R
Millville      SUNNY     63  60  90 W13       29.65R
Atlantic City  MOSUNNY   63  58  83 W15       29.63R
Wrightstown    CLOUDY    60  59  94 SW9       29.59R
Toms River     CLOUDY    61  59  93 W10       29.61R
Belmar         CLOUDY    60  57  89 W9        29.60R
$$

PAZ047>061-062-071-261300-
EASTERN PENNSYLVANIA

CITY           SKY/WX    TMP DP  RH WIND       PRES   REMARKS
Philadelphia   MOSUNNY   62  58  86 SW12      29.63R
Allentown      CLOUDY    62  57  83 SW7       29.60R
Scranton       CLOUDY    59  58  96 W3        29.61R
$$

CTZ002-004>006-009-010-012-RIZ004-006-007-MAZ004-011-015-261300-
SOUTHERN NEW ENGLAND
 IN CT

CITY           SKY/WX    TMP DP  RH WIND       PRES   REMARKS
Bradley INTL   LGT RAIN  52  50  93 NW6       29.54R FOG
Hartford       LGT RAIN  52  51  97 NW9       29.54R
Danbury        LGT RAIN  53  52  96 CALM      29.57R
Wtrbury/Oxford LGT RAIN  52  46  82 N5        29.56S FOG
Bridgeport     LGT RAIN  55  51  86 NW6       29.55R
Meriden        LGT RAIN  52  50  93 NW6       29.55R
New Haven      LGT RAIN  52  50  93 NW6       29.54R
Chester        LGT RAIN  52  50  93 NW9       29.52R
Groton         CLOUDY    52  49  89 N12       29.49R
Wilimantic     LGT RAIN  53  50  89 N7        29.52R

 IN RI

CITY           SKY/WX    TMP DP  RH WIND       PRES   REMARKS
Providence     RAIN      50  50 100 NW8       29.48S FOG
Block Island   LGT RAIN  52  52 100 NW8       29.48R
Westerly       LGT RAIN  52  50  93 NW7       29.49R
 IN MA

CITY           SKY/WX    TMP DP  RH WIND       PRES   REMARKS
Boston         LGT RAIN  49  48  97 N13       29.48F FOG
Worcester      LGT RAIN  46  44  93 N8        29.50R FOG
Westfield      RAIN      52  51  97 NW9       29.54R FOG
Provincetown   CLOUDY    56  55  97 S9        29.46F FOG
Nantucket      LGT RAIN  55  53  93 SW15      29.48F FOG
$$

ANZ330-335-338-340-345-350-353-355-261300-
COASTAL MARINE OBSERVATIONS


STATION/POSITION TIME  SKY/WX   TEMP    WIND        PRES    VSBY  WAVE
                                AIR SEA DIR/SP/G                  HT/PER
                 (UTC)          (F)     (DEG/KT/KT) (MB)    (MI)  (FT/S)
NY HARB ENTRANCE 1050            57 56  320/  8/ 10 1000.7          5/ 8
20 S FIRE ISLAND 1150            54 55  320/ 10/ 12 1000.5          6/ 8
GREAT SOUTH BAY  1130            55 62  320/  6/ 10   N/A
23 SSW MONTAUK P 1050            54 53               998.1          7/ 8
15 E BARNEGAT LI 1130               58                N/A           6/ 9
HUDSON CANYON    1050            56 53  230/ 16/ 17 1000.5          7/10
KINGS POINT      1148            56 57   40/  2/  2 1001.0
EXECUTION ROCKS  1145            56                   N/A
CENTRAL LI SOUND NOT AVBL
EASTERN LI SOUND NOT AVBL
ROBBINS REEF     1148            57     300/ 10/ 11 1001.9
$$


>>>>>>>>>>>>>>>>>>>>>>>>>>>> KEY <<<<<<<<<<<<<<<<<<<<<<<<<<<
>                                                          <
>     SKY/WX - Sky Condition/Present Weather               <
>     TMP    - Temperature in Fahrenheit                   <
>     DP     - Dew Point in Fahrenheit                     <
>     RH     - Relative Humidity in Percent                <
>     WIND   - Direction (from) and Speed in MPH           <
>     PRES   - Mean Sea Level Pressure (inches of Hg)      <
>     WCI    - Wind Chill Index                            <
>     VSB    - VISIBILITY IN MILES                         <
>     HX     - HEAT INDEX                                  <
>     TC     - TEMPERATURE IN CELSIUS                      <
>     VRB    - VARIABLE WIND DIRECTION                     <
>                                                          <
>>>>>>>>>>>>>>>>>>>>>>>>>>>> KEY <<<<<<<<<<<<<<<<<<<<<<<<<<<



USA.gov is the U.S. government's official web portal to all federal, state and local government web resources and services.